Flag for Germany Weather past 2 weeks in Wismar, Mecklenburg-Western Pomerania, Germany

Now
42 °F

Low clouds.


Feels Like: 39 °F
Forecast: 37 / 47 °F
Wind: 5 mph from Southwest

Location: Schwerin

Current Time: Mar 27, 2015 at 10:14:22 AM

Latest Report: Mar 27, 2015 at 9:00 AM


Visibility: 3 mi

Pressure: 29.80 "Hg

Humidity: 90%

Dew point: 39 °F

Location of WismarLocation

Historic Weather in Wismar — Graph

°F

Wismar temperature yesterday

Maximum temperature yesterday: 46 °F (at 12:00 AM)
Minimum temperature yesterday: 41 °F (at 11:00 PM)
Average temperature yesterday: 43 °F

Past Weeks' High & Low Weather Summary

 TemperatureHumidityPressure
High59 °F (Mar 17, 3:00 PM)98% (Mar 21, 12:00 PM)30.55 "Hg (Mar 21, 12:00 PM)
Low29 °F (Mar 23, 6:00 AM)22% (Mar 19, 3:00 PM)29.65 "Hg (Mar 26, 1:00 AM)
Average42 °F72%30.20 "Hg
* Reported Mar 12 9:00 AM — Mar 27 9:00 AM, Wismar, Weather by CustomWeather, © 2015

Note: Actual official high and low records may vary slightly from our data, if they occured in-between our weather recording intervals... More about our weather records

Advertising

Wismar weather history for previous 24 hours

 ConditionsComfort  
Time TempWeatherWind HumidityBarometerVisibility
9:00 AM
Fri, Mar 27
42 °FLow clouds.5 mph90%29.80 "Hg3 mi
8:00 AM41 °FLow clouds.2 mph92%29.79 "Hg2 mi
7:00 AM40 °FFog.2 mph88%29.77 "Hg2 mi
6:00 AM40 °FFog.2 mph88%29.76 "Hg3 mi
5:00 AM40 °FFog.1 mph88%29.75 "Hg3 mi
3:00 AM40 °FOvercast.2 mph86%29.74 "Hg4 mi
2:00 AM40 °FOvercast.2 mph84%29.75 "Hg5 mi
1:00 AM41 °FOvercast.2 mph82%29.75 "Hg5 mi
12:00 AM40 °FLight rain. Overcast.1 mph80%29.75 "Hg6 mi
11:00 PM
Thu, Mar 26
41 °FOvercast.1 mph80%29.75 "Hg6 mi
10:00 PM41 °FOvercast.2 mph78%29.76 "Hg6 mi
9:00 PM42 °FOvercast.2 mph76%29.75 "Hg7 mi
8:00 PM42 °FOvercast.2 mph75%29.75 "Hg9 mi
7:00 PM43 °FOvercast.2 mph73%29.75 "Hg9 mi
6:00 PM43 °FOvercast.3 mph70%29.74 "Hg11 mi
5:00 PM44 °FOvercast.3 mph70%29.74 "Hg8 mi
3:00 PM43 °FOvercast.2 mph74%29.74 "Hg14 mi
2:00 PM42 °FOvercast.5 mph75%29.74 "Hg11 mi
1:00 PM42 °FOvercast.5 mph75%29.74 "Hg15 mi
12:00 PM41 °FLight rain. Overcast.5 mph81%29.74 "Hg6 mi
11:00 AM42 °FOvercast.7 mph78%29.73 "Hg7 mi
Weather by CustomWeather, © 2015

See weather overviewHow to use our weather pages